Temperature
16 15 16 16 16 15 14 14 13 12 11 10 9 9 8 8 7 7 7 6 6 5 5 4 4 3 3 2 1 1 -0 -1 -2 -3 -4 -3 -3 -2 -2 -3 -3 -4 -5
15 14 15 16 16 16 15 15 14 13 12 11 11 10 9 8 8 8 7 7 6 5 5 4 4 3 3 2 1 1 -0 -1 -2 -4 -5 -4 -4 -4 -4 -4 -4 -4 -5
15 14 14 16 17 16 16 16 15 14 13 12 11 10 9 8 8 8 8 7 6 5 5 4 4 3 3 2 1 1 -0 -1 -2 -3 -4 -5 -4 -4 -5 -5 -4 -5 -5
15 15 15 16 17 17 17 16 15 15 14 13 12 11 11 10 11 10 9 8 7 6 5 5 4 3 3 2 1 1 -0 -1 -2 -4 -4 -5 -6 -7 -6 -6 -5 -5 -6
16 16 17 17 18 17 17 16 16 15 15 14 13 12 11 11 10 9 9 9 8 7 6 5 4 3 3 2 1 1 -0 -1 -1 -3 -4 -5 -6 -7 -8 -7 -6 -6 -6
17 17 18 18 18 18 17 17 16 16 15 15 14 13 13 12 11 10 9 9 8 8 7 6 5 4 3 2 2 1 -0 -1 -1 -2 -4 -5 -6 -7 -7 -7 -7 -6 -6
16 17 17 18 18 18 18 17 17 17 16 15 15 15 14 13 12 11 9 9 9 9 8 6 5 4 3 2 2 1 0 -1 -1 -2 -3 -4 -5 -6 -7 -8 -7 -7 -7
16 16 17 17 17 17 17 17 17 17 17 16 16 15 15 13 13 12 10 9 9 9 8 6 5 4 3 2 2 1 0 -1 -1 -2 -3 -4 -4 -6 -7 -8 -8 -8 -8
15 15 15 16 16 16 16 16 16 16 16 16 15 15 14 14 14 12 10 9 9 8 7 6 5 4 3 2 1 1 0 -1 -1 -2 -3 -4 -4 -5 -6 -7 -8 -9 -9
15 14 14 15 15 15 16 16 16 15 15 15 14 14 14 13 13 12 11 10 9 7 6 5 4 3 2 2 1 0 -0 -1 -1 -2 -3 -3 -4 -5 -6 -7 -8 -9 -10
14 13 14 14 14 15 15 15 15 15 14 14 14 14 14 13 12 12 11 10 8 7 6 5 4 3 2 1 0 -0 -0 -1 -2 -2 -3 -3 -4 -5 -6 -7 -8 -9 -9
13 13 13 13 14 14 14 14 14 14 14 14 13 13 13 12 12 12 11 10 8 7 5 4 3 2 1 0 -0 -1 -1 -2 -2 -3 -3 -4 -4 -5 -6 -7 -8 -9 -9
12 12 12 13 13 13 13 13 13 13 13 13 13 13 13 12 12 11 10 9 7 6 5 3 2 1 0 -0 -0 -1 -2 -2 -2 -3 -3 -4 -5 -5 -6 -7 -8 -8 -9
12 12 11 12 12 12 12 12 12 12 12 12 12 12 12 11 11 10 9 8 7 5 4 2 1 0 -0 -1 -1 -2 -2 -2 -2 -3 -3 -4 -5 -5 -6 -7 -8 -8 -9
11 11 11 11 11 11 11 11 11 11 11 11 11 11 11 10 10 9 8 7 6 4 2 1 0 -0 -1 -1 -1 -2 -3 -3 -3 -3 -4 -4 -4 -5 -6 -7 -7 -8 -8
11 10 10 10 10 10 9 9 10 10 10 10 10 10 10 9 9 9 8 7 5 4 2 1 -0 -1 -1 -1 -2 -3 -3 -3 -3 -3 -4 -4 -5 -5 -6 -7 -7 -8 -8
10 9 9 9 8 8 8 8 9 9 9 9 9 9 9 8 8 8 7 6 5 3 2 1 -1 -1 -1 -2 -3 -4 -4 -4 -4 -4 -4 -5 -5 -6 -6 -7 -7 -8 -8
9 8 8 8 7 7 8 8 8 8 8 8 8 8 8 7 7 7 6 5 3 2 1 -0 -1 -2 -2 -3 -4 -4 -4 -4 -4 -4 -5 -5 -5 -6 -6 -7 -7 -8 -8
8 7 7 7 7 7 7 7 7 7 7 7 7 7 6 6 6 5 5 4 2 1 -0 -1 -2 -3 -3 -3 -4 -4 -4 -5 -5 -5 -5 -5 -5 -6 -7 -8 -8 -8 -8
7 6 6 6 6 6 6 6 6 6 6 5 5 5 5 5 5 4 4 3 1 -0 -2 -3 -3 -4 -4 -4 -4 -4 -5 -5 -5 -5 -5 -5 -5 -6 -7 -8 -8 -8 -8
6 6 6 6 6 6 5 5 5 4 4 4 4 4 4 4 4 3 3 2 1 -1 -2 -4 -4 -5 -5 -4 -4 -4 -5 -5 -5 -5 -5 -5 -5 -6 -7 -8 -8 -8 -8
6 5 5 5 5 5 5 4 3 3 3 3 3 3 3 3 3 2 2 1 -1 -2 -3 -5 -5 -6 -5 -5 -5 -5 -5 -5 -5 -5 -5 -5 -6 -7 -7 -8 -8 -8 -8
5 5 4 4 5 4 3 3 3 2 2 2 2 2 2 2 1 1 1 -0 -2 -3 -4 -5 -6 -6 -6 -5 -5 -5 -5 -5 -5 -5 -5 -6 -7 -7 -7 -8 -8 -8 -9
4 4 4 3 4 3 3 2 2 1 1 1 1 1 1 1 1 0 -0 -1 -2 -3 -4 -5 -6 -6 -6 -6 -5 -5 -5 -5 -5 -6 -6 -7 -7 -8 -8 -8 -8 -8 -9
4 3 3 3 2 2 2 2 1 0 0 -0 -0 -0 -0 -0 -0 -0 -1 -1 -2 -3 -4 -5 -6 -7 -6 -5 -5 -5 -5 -5 -5 -6 -6 -7 -7 -8 -8 -8 -8 -9 -9
3 3 3 2 2 1 1 1 0 -0 -1 -1 -1 -1 -1 -1 -1 -1 -1 -1 -2 -3 -4 -6 -7 -7 -6 -6 -6 -5 -5 -5 -5 -6 -7 -7 -7 -8 -8 -8 -8 -9 -9
Wind_Speed
19 16 18 20 20 21 22 23 23 23 20 17 17 16 16 15 15 18 21 22 21 22 20 16 15 15 12 11 11 9 10 8 7 7 9 10 11 11 9 11 11 13 14
16 15 15 17 21 22 23 23 24 24 24 19 17 15 15 14 16 17 20 23 24 23 21 20 15 16 12 13 13 12 9 8 7 6 6 6 6 8 8 9 10 12 13
13 13 15 17 19 22 24 22 24 24 24 22 15 13 13 11 14 16 16 22 25 25 24 23 20 17 15 13 14 14 13 10 9 9 7 6 5 5 7 10 10 11 11
7 9 11 15 18 20 19 21 22 23 23 22 20 22 19 19 19 16 16 19 25 26 26 24 23 19 16 15 14 14 13 12 10 9 10 10 8 7 6 7 9 12 13
5 5 9 12 15 16 17 18 20 22 22 24 24 23 23 20 16 16 18 19 20 25 26 26 23 20 17 17 16 15 15 13 12 10 9 10 10 12 10 10 11 11 12
8 6 5 8 10 13 15 17 19 21 22 24 25 26 27 24 21 20 18 17 16 17 24 25 23 21 18 18 17 16 17 15 14 12 11 10 9 9 10 13 14 14 13
11 10 8 6 8 11 14 16 19 21 22 24 25 26 27 25 25 23 21 19 16 17 21 22 21 20 20 19 18 17 17 17 16 15 12 12 12 11 11 13 14 16 15
14 13 11 8 7 8 11 15 18 20 20 22 24 24 24 20 19 23 20 19 17 18 19 22 22 22 22 20 18 16 16 15 16 16 15 12 12 12 12 13 13 15 15
16 15 13 10 8 7 8 12 15 17 18 20 21 21 22 22 21 20 20 19 18 16 20 21 22 22 21 21 19 16 17 16 16 16 16 14 13 12 12 12 13 13 15
16 15 13 11 9 8 6 7 11 13 15 16 17 16 19 21 21 19 21 21 20 19 19 21 22 22 21 21 19 17 17 17 16 14 15 15 13 12 12 13 13 13 15
15 13 12 12 10 9 7 6 7 10 11 13 15 17 18 18 19 20 21 21 20 20 21 21 21 22 22 21 20 19 18 18 17 16 16 17 16 13 12 13 13 14 14
12 12 12 12 11 11 9 7 7 8 9 10 13 15 16 17 18 20 20 20 20 20 20 20 21 21 21 21 21 20 19 18 18 18 17 18 14 16 15 13 15 15 16
11 12 13 13 13 13 11 10 8 8 8 9 11 13 15 16 18 19 18 19 19 20 20 21 21 21 21 21 21 20 20 19 19 18 17 18 17 17 15 16 15 14 15
11 13 14 15 15 14 13 12 11 9 8 9 11 13 14 15 16 17 17 18 18 20 20 21 21 20 20 19 19 19 18 18 18 18 18 17 17 18 17 15 17 16 17
14 15 16 17 17 17 15 14 13 11 9 10 11 13 13 13 14 15 15 16 18 19 19 20 20 20 18 17 19 18 18 18 18 17 18 18 20 22 18 15 16 16 15
17 18 18 18 17 17 16 15 14 13 11 11 12 12 12 12 13 14 15 16 17 18 19 20 21 21 18 25 29 22 18 18 18 17 17 18 20 23 25 27 25 22 18
18 19 18 17 17 16 15 15 15 14 12 12 12 12 12 13 13 14 15 16 17 18 19 19 21 22 23 29 30 31 20 18 17 17 16 14 15 19 16 20 24 23 26
19 18 17 17 16 16 14 14 14 13 12 12 12 12 11 13 13 14 15 16 15 16 17 18 20 21 22 29 30 30 23 19 18 17 17 16 16 15 15 14 16 17 18
17 16 15 16 16 15 14 12 13 12 11 12 13 12 12 13 13 14 15 15 14 16 16 17 19 21 22 28 30 28 17 17 19 17 16 17 16 19 21 16 17 18 16
15 14 15 15 16 15 14 14 15 15 14 14 15 14 13 14 14 14 14 13 14 15 15 16 18 20 20 24 29 29 15 16 15 15 15 20 20 20 20 16 16 17 15
15 15 14 14 15 16 15 15 16 16 16 16 16 16 15 14 14 14 13 12 12 13 15 16 16 18 20 22 27 29 17 15 14 12 12 13 19 21 21 19 15 17 16
15 15 15 16 16 15 15 17 17 17 17 17 17 17 15 13 11 13 12 12 12 13 14 14 15 14 16 20 23 28 27 21 15 13 11 12 17 18 19 16 16 19 17
15 15 16 17 17 16 16 18 18 17 17 17 17 17 16 13 12 12 12 11 11 11 11 12 13 12 12 15 24 26 27 27 17 12 15 15 16 16 14 15 17 15 11
15 15 17 18 18 18 17 18 18 17 17 17 17 16 15 14 12 10 10 10 10 11 11 12 12 12 12 12 13 14 16 21 18 14 15 17 16 13 12 12 11 9 9
15 15 16 18 20 19 19 18 18 17 17 17 16 15 13 13 12 11 10 11 12 12 12 12 12 12 12 15 19 15 13 13 12 11 8 9 9 9 9 8 8 8 8
16 16 17 19 20 20 20 19 17 16 16 15 15 13 12 11 11 11 11 14 16 19 21 21 17 14 17 17 20 22 21 20 18 13 9 9 9 9 9 8 8 8 8
Wind_Direction
241 225 213 209 208 207 206 206 205 205 204 204 207 210 214 215 216 217 215 211 209 207 209 212 211 209 213 215 217 222 230 234 239 260 269 266 259 258 257 258 261 263 266
244 225 213 207 207 207 207 207 207 205 204 206 207 211 216 220 219 218 218 215 212 209 209 212 211 210 214 216 216 217 225 230 224 239 270 281 261 235 247 257 261 266 269
251 232 217 214 210 210 209 208 207 207 206 205 206 208 215 222 218 218 218 216 214 212 211 212 213 211 212 214 213 212 218 225 222 222 236 258 275 289 258 257 261 265 268
264 247 227 219 216 216 213 213 211 210 208 205 208 207 210 217 220 219 219 217 215 214 213 212 212 213 212 215 213 212 216 222 229 223 226 236 253 265 284 262 259 263 268
327 273 242 231 225 219 215 214 215 214 211 209 211 214 222 227 228 223 222 220 215 215 213 213 212 213 213 214 213 211 213 216 224 226 226 233 242 240 249 274 281 276 272
357 330 279 245 232 221 215 214 215 217 213 212 214 218 223 226 226 224 222 219 217 215 214 212 212 212 212 212 212 212 214 217 221 227 230 232 236 241 246 263 276 283 283
358 347 328 282 245 225 217 215 216 219 215 215 217 221 225 227 228 228 224 221 219 216 213 209 211 211 212 211 210 212 215 217 221 224 228 233 238 246 253 263 274 281 285
356 345 334 312 278 245 226 220 220 222 218 218 221 224 226 228 232 230 227 225 224 222 215 210 211 210 209 208 208 211 214 217 221 225 229 234 239 242 247 255 269 280 284
347 341 336 328 309 280 245 230 228 228 224 223 224 226 227 228 231 233 231 231 229 225 218 213 212 211 209 207 206 211 213 214 219 224 227 232 239 242 245 250 254 264 280
343 341 340 337 328 313 289 254 241 238 234 228 227 230 230 231 233 233 232 230 229 225 221 216 213 211 209 207 207 211 213 214 218 222 229 232 237 242 244 247 250 251 260
340 341 342 342 338 333 319 290 263 251 244 236 233 233 234 233 233 233 234 233 230 226 222 218 215 212 209 206 207 210 210 214 219 221 227 233 237 242 244 247 249 251 254
344 345 346 346 348 344 336 317 291 269 257 248 242 240 239 237 235 236 235 233 231 227 224 220 218 215 210 207 207 210 211 213 218 222 226 234 235 239 244 247 249 252 256
350 353 352 349 347 342 337 327 312 292 278 262 252 248 244 241 240 240 238 234 232 228 224 221 219 216 211 207 208 209 211 214 218 221 225 232 234 240 243 245 250 255 259
351 350 346 343 340 336 332 328 320 309 292 274 262 258 254 250 247 244 239 235 231 229 225 223 221 217 213 209 207 208 212 215 219 222 226 231 232 238 243 247 251 255 260
346 342 338 334 332 330 329 328 321 315 302 284 272 268 267 262 255 249 244 238 234 231 227 225 222 217 213 209 205 206 210 215 220 224 228 231 234 237 240 244 250 254 259
336 333 329 327 326 325 325 323 319 316 306 291 283 281 276 268 259 252 245 239 235 231 227 225 223 220 215 214 209 205 211 216 220 225 229 234 239 242 247 252 255 257 263
328 325 322 321 320 319 320 317 314 313 305 294 288 285 280 272 265 257 248 242 237 232 228 226 223 223 219 216 214 211 210 216 220 223 228 233 236 240 245 255 262 267 269
322 319 318 316 314 313 315 312 310 308 302 296 291 286 281 277 272 262 253 247 241 235 231 228 226 226 223 219 217 216 215 221 224 225 228 234 239 238 242 249 257 261 264
315 313 313 311 310 309 312 310 305 304 297 294 296 295 286 281 276 267 259 251 244 239 234 230 228 227 226 221 219 217 218 222 226 228 229 234 240 243 246 251 258 265 267
312 313 313 310 309 313 318 311 308 309 308 308 305 302 295 285 278 273 266 256 246 242 237 235 230 228 227 222 219 217 217 221 225 227 229 234 239 244 248 250 259 267 273
310 313 313 311 311 318 317 309 308 309 311 310 306 302 296 289 282 278 268 258 248 243 238 237 233 230 229 225 220 217 212 217 221 225 227 230 236 244 250 254 259 267 276
310 315 315 312 313 314 311 308 308 311 312 308 304 301 298 293 284 277 270 258 248 243 240 238 236 231 228 226 223 219 217 215 218 224 228 231 235 244 252 258 263 271 279
312 314 313 310 310 312 312 307 308 311 310 306 303 302 301 295 286 277 270 260 247 242 240 236 235 232 225 223 222 221 221 220 218 224 229 233 239 247 255 260 267 273 275
313 314 312 310 311 312 310 306 307 309 306 304 303 303 302 298 291 277 266 257 248 242 238 236 235 232 225 219 215 215 221 224 225 229 231 234 242 246 252 260 265 263 265
310 311 309 306 306 309 309 308 309 310 307 305 303 303 299 295 292 279 265 258 249 243 238 238 236 233 229 221 210 204 208 208 212 210 216 223 231 238 243 250 256 260 263
307 307 305 306 309 310 309 309 310 310 307 305 304 303 301 297 291 287 280 259 252 253 247 243 241 240 239 235 220 214 212 208 205 205 216 223 229 237 245 252 258 260 264
Height
1492 1494 1495 1498 1500 1502 1505 1507 1510 1513 1515 1516 1517 1518 1519 1522 1523 1524 1526 1527 1528 1529 1530 1530 1530 1529 1529 1529 1528 1527 1526 1524 1523 1521 1518 1516 1513 1511 1508 1506 1503 1500 1497
1485 1487 1488 1490 1492 1495 1497 1500 1502 1505 1506 1507 1509 1511 1513 1514 1515 1516 1517 1518 1519 1520 1521 1522 1522 1522 1522 1521 1521 1520 1520 1518 1517 1516 1514 1512 1510 1505 1503 1500 1497 1495 1492
1479 1481 1481 1483 1485 1487 1490 1492 1495 1497 1499 1501 1503 1503 1504 1504 1505 1505 1506 1508 1510 1511 1512 1513 1513 1513 1513 1513 1513 1513 1512 1512 1510 1509 1509 1507 1504 1501 1497 1495 1492 1489 1486
1476 1477 1477 1478 1479 1482 1484 1486 1488 1490 1492 1493 1493 1493 1493 1492 1493 1496 1497 1498 1499 1501 1502 1503 1504 1504 1504 1504 1504 1504 1504 1504 1503 1502 1500 1500 1498 1496 1491 1489 1486 1483 1480
1475 1475 1475 1475 1476 1477 1478 1480 1481 1482 1483 1484 1484 1484 1484 1485 1487 1487 1486 1487 1488 1489 1490 1492 1493 1493 1494 1494 1495 1495 1495 1495 1495 1494 1493 1492 1491 1489 1486 1481 1480 1477 1474
1475 1474 1473 1473 1472 1472 1472 1473 1473 1474 1475 1475 1475 1475 1475 1476 1477 1476 1475 1476 1476 1476 1478 1480 1481 1482 1483 1484 1485 1486 1486 1486 1486 1486 1485 1484 1483 1482 1480 1475 1472 1469 1466
1475 1473 1472 1470 1469 1468 1467 1467 1466 1466 1467 1466 1466 1466 1466 1467 1466 1466 1465 1465 1464 1464 1465 1467 1469 1470 1472 1474 1476 1476 1476 1477 1477 1477 1476 1475 1474 1473 1472 1469 1465 1461 1457
1474 1472 1469 1467 1465 1463 1462 1460 1460 1459 1459 1458 1458 1457 1457 1457 1456 1456 1455 1454 1452 1453 1454 1456 1457 1459 1461 1463 1465 1465 1466 1467 1467 1468 1468 1467 1466 1465 1463 1462 1459 1454 1449
1473 1470 1466 1463 1461 1459 1457 1455 1454 1453 1452 1451 1450 1449 1449 1448 1447 1446 1445 1444 1443 1442 1443 1444 1445 1447 1450 1452 1453 1454 1456 1457 1458 1458 1458 1458 1457 1456 1455 1453 1452 1449 1442
1471 1468 1464 1460 1457 1455 1453 1451 1449 1448 1446 1445 1444 1442 1441 1440 1438 1437 1435 1433 1432 1432 1431 1432 1433 1435 1437 1440 1441 1443 1445 1447 1448 1449 1449 1448 1448 1447 1446 1444 1443 1440 1436
1470 1466 1462 1459 1456 1453 1450 1448 1446 1444 1442 1440 1438 1436 1434 1432 1429 1427 1425 1424 1423 1421 1420 1421 1422 1423 1425 1427 1430 1432 1434 1436 1438 1439 1440 1440 1439 1438 1437 1436 1434 1431 1429
1469 1465 1462 1459 1455 1452 1449 1446 1443 1440 1437 1435 1432 1429 1427 1424 1421 1418 1416 1414 1412 1411 1410 1410 1410 1412 1414 1416 1418 1421 1424 1426 1428 1429 1430 1430 1430 1429 1428 1426 1424 1422 1420
1468 1465 1461 1458 1454 1451 1447 1444 1440 1437 1433 1430 1427 1424 1420 1417 1413 1410 1407 1405 1403 1401 1399 1399 1398 1400 1402 1405 1408 1411 1413 1415 1417 1419 1420 1420 1420 1419 1418 1417 1415 1414 1411
1467 1464 1460 1457 1453 1449 1445 1441 1437 1433 1429 1425 1421 1417 1413 1409 1405 1402 1398 1395 1393 1390 1389 1388 1388 1390 1392 1394 1397 1400 1402 1405 1407 1409 1410 1410 1410 1410 1409 1408 1406 1405 1403
1465 1462 1458 1454 1450 1446 1441 1437 1432 1428 1423 1419 1414 1410 1406 1402 1397 1393 1389 1386 1383 1380 1379 1378 1377 1378 1380 1382 1386 1389 1392 1395 1397 1399 1400 1400 1401 1400 1400 1399 1397 1396 1394
1463 1459 1455 1451 1446 1441 1436 1431 1426 1422 1417 1412 1407 1403 1398 1393 1389 1384 1380 1376 1372 1370 1368 1367 1367 1367 1368 1372 1376 1379 1382 1385 1387 1389 1390 1391 1391 1391 1390 1390 1390 1389 1386
1460 1455 1451 1446 1441 1436 1430 1425 1420 1415 1409 1404 1400 1395 1390 1385 1380 1375 1370 1366 1363 1360 1357 1356 1356 1356 1358 1362 1366 1369 1372 1375 1377 1379 1381 1381 1381 1382 1381 1380 1380 1379 1377
1455 1450 1445 1440 1435 1430 1424 1419 1413 1408 1402 1397 1392 1387 1381 1376 1371 1366 1361 1357 1353 1350 1348 1346 1346 1347 1348 1353 1357 1361 1364 1366 1368 1370 1371 1372 1372 1373 1372 1371 1369 1367 1366
1449 1444 1439 1434 1428 1423 1417 1411 1406 1400 1395 1389 1384 1378 1373 1367 1362 1357 1352 1348 1344 1341 1338 1337 1336 1337 1339 1343 1348 1352 1355 1357 1359 1361 1362 1363 1364 1364 1364 1363 1361 1359 1357
1443 1438 1433 1428 1422 1417 1410 1404 1398 1392 1386 1381 1375 1370 1365 1359 1353 1348 1344 1339 1335 1332 1330 1328 1327 1328 1330 1334 1338 1343 1346 1348 1350 1352 1353 1354 1355 1355 1356 1355 1354 1351 1349
1437 1432 1427 1421 1416 1409 1403 1396 1390 1385 1379 1373 1367 1362 1357 1351 1346 1340 1335 1331 1327 1324 1321 1320 1319 1319 1321 1325 1329 1333 1336 1339 1341 1343 1345 1346 1347 1347 1348 1348 1346 1344 1342
1431 1426 1420 1415 1409 1403 1396 1389 1383 1377 1371 1365 1359 1354 1349 1343 1338 1332 1327 1323 1319 1316 1313 1312 1311 1311 1313 1316 1319 1323 1327 1331 1333 1335 1337 1338 1339 1339 1340 1340 1338 1337 1335
1425 1419 1413 1407 1401 1396 1390 1382 1376 1370 1363 1357 1351 1346 1341 1335 1330 1325 1320 1315 1311 1308 1306 1304 1303 1303 1304 1307 1311 1315 1319 1323 1325 1327 1330 1331 1332 1332 1332 1332 1331 1329 1327
1418 1412 1406 1399 1393 1388 1382 1376 1369 1362 1356 1349 1344 1338 1333 1327 1322 1317 1313 1308 1304 1301 1298 1297 1296 1296 1297 1299 1303 1307 1311 1316 1319 1321 1323 1325 1325 1325 1325 1324 1323 1322 1320
1411 1406 1399 1392 1385 1379 1374 1368 1362 1355 1348 1342 1336 1331 1325 1320 1314 1310 1305 1301 1297 1294 1292 1290 1290 1290 1290 1292 1296 1300 1304 1308 1312 1315 1316 1317 1318 1318 1318 1317 1316 1314 1313
1404 1398 1391 1384 1378 1372 1365 1360 1354 1348 1341 1334 1329 1323 1318 1313 1307 1302 1297 1293 1290 1286 1284 1283 1283 1283 1285 1288 1291 1294 1298 1302 1306 1308 1309 1310 1311 1311 1311 1310 1309 1308 1306